Location: Flansum
(53.0866°N, 5.7680°E)
Time: 05:47:59
(UTC+00:00)

Daily predictions for brighter satellites

Satellite Brightness Start Highest point End
(mag) Time Altitude Azimuth Time Altitude Azimuth Time Altitude Azimuth
CENTAUR R/B 3.8 02:30:26 48° NE 02:30:26 48° NE 02:37:35 10° E
USA 238 DEB 4.4 02:56:23 53° E 02:56:23 53° E 03:02:10 10° ESE
USA 238 4.4 02:56:27 53° E 02:56:27 53° E 03:02:15 10° ESE
Lacrosse 4 Rocket 4.3 03:12:21 16° ENE 03:12:21 16° ENE 03:13:40 10° E
Cosmos 2227 Rocket 3.2 03:26:52 41° NE 03:26:52 41° NE 03:30:33 10° NE
Cosmos 2219 4.2 03:32:59 40° NNE 03:32:59 40° NNE 03:36:38 10° NNE
Nadezhda 1 Rocket 4.3 03:31:32 10° N 03:37:55 64° ENE 03:44:12 10° SSE
SL-16 R/B 4.4 03:45:58 13° SSE 03:45:58 13° SSE 03:46:37 10° SSE
CZ-2C R/B 4.4 03:39:02 10° NNE 03:40:24 19° NNE 03:40:24 19° NNE
ATLAS 3B R/B 3.4 03:43:37 39° N 03:45:05 44° NNE 03:51:47 10° E
Timation 2 Rocket 4.3 03:47:19 58° N 03:47:19 58° N 03:52:48 10° NNE
USA 229 DEB 4.3 03:56:39 43° NNW 03:56:39 43° NNW 04:03:25 10° NE
USA 229 4.2 03:56:44 43° NNW 03:56:44 43° NNW 04:03:30 10° NE
Cosmos 968 Rocket 4.5 04:00:10 37° NNE 04:00:10 37° NNE 04:03:20 10° NNE
USA 306 4.2 03:59:57 38° ESE 03:59:57 38° ESE 04:03:01 10° ENE
Cosmos 2297 Rocket 2.8 04:01:18 45° N 04:01:18 45° N 04:05:27 10° NNE
NOSS 3-2 (C) 3.9 03:58:44 59° NW 04:00:27 88° SW 04:08:51 10° SE
ALOS 3.1 03:57:21 10° NNE 04:01:55 49° E 04:05:13 18° S
Cosmos 1538 Rocket 4.3 04:03:20 60° NNE 04:04:02 67° ENE 04:09:20 10° SE
NOSS 3-1 (A) 4.1 04:10:19 41° NNW 04:10:33 41° NNW 04:17:17 10° NE
NOSS 3-1 (C) 4.3 04:12:07 36° NNW 04:12:50 37° N 04:19:31 10° ENE
Cosmos 2084 4.1 04:15:48 54° SE 04:15:48 54° SE 04:19:19 10° SE
ATLAS CENTAUR R/B 3.1 04:18:22 23° NNE 04:18:22 23° NNE 04:21:13 10° E
CENTAUR R/B 3.1 04:17:39 44° WNW 04:20:37 77° SW 04:29:23 10° SE
Cosmos 1745 Rocket 4.0 04:15:38 10° S 04:21:56 87° E 04:28:19 10° N
SL-08 ROCKET BODY 4.3 04:16:42 10° SSW 04:22:48 81° WNW 04:29:02 10° N
Cosmos 2263 Rocket 3.5 04:19:17 10° S 04:24:31 39° ESE 04:29:47 10° NE
SKYMED 2 3.8 04:20:53 10° SSE 04:25:11 67° ENE 04:26:23 45° N
Cosmos 1933 4.0 04:24:49 41° NNE 04:25:55 55° ENE 04:29:56 10° SSE
Cosmos 2082 Rocket 4.4 04:26:41 11° NNW 04:29:03 14° NNE 04:32:04 10° NE
Cosmos 2181 Rocket 4.5 04:23:01 10° N 04:29:14 61° ENE 04:35:21 10° SSE
NOSS 3-2 (A) 4.2 04:29:36 45° W 04:31:11 51° SW 04:39:12 10° SSE
ARGOS Delta rocket 3.9 04:27:04 10° NNE 04:32:27 87° WNW 04:37:31 10° SSW
EXPRESS MD2 3.9 04:32:33 49° SSE 04:32:33 49° SSE 04:37:47 10° E
Cosmos 1603 3.5 04:34:05 50° NW 04:35:34 76° WSW 04:41:11 10° SSE
NOSS 2-2 (C) 3.9 04:36:45 45° NNE 04:36:45 45° NNE 04:40:09 10° NE
CBERS 1 LM4 rocket 4.3 04:40:24 10° N 04:45:04 58° WNW 04:45:21 57° W
USA 238 DEB 4.1 04:43:52 39° W 04:45:38 46° WSW 04:52:41 10° SSE
USA 238 4.1 04:43:56 39° W 04:45:44 46° WSW 04:52:47 10° SSE
Cosmos 1782 3.9 04:42:16 12° N 04:45:53 45° ENE 04:49:46 10° SSE
FENGYUN 3A 3.5 04:41:11 10° NNE 04:46:38 76° WNW 04:52:02 10° SSW
FALCON 9 DEB 3.8 04:46:45 48° SSE 04:46:50 48° SSE 04:50:12 10° E
SL-4 R/B 3.3 04:45:40 26° S 04:46:52 32° SSE 04:50:14 10° E
Cosmos 1943 3.1 04:45:08 38° NW 04:47:20 72° WSW 04:53:00 10° SSE
Cosmos 1709 Rocket 4.1 04:41:29 10° S 04:47:50 80° E 04:54:16 10° NNE
Cosmos 2344 4.3 04:41:55 24° NW 04:48:03 80° NE 05:00:16 10° SE
Cosmos 1151 Rocket 3.1 04:45:20 20° N 04:48:12 75° ENE 04:52:28 10° SSE
Lacrosse 4 Rocket 1.4 04:48:40 51° NNW 04:49:43 80° NE 04:54:05 10° SE
CZ-2C R/B 4.4 04:45:17 10° ESE 04:49:58 30° ENE 04:54:36 10° N
Cosmos 2151 2.8 04:47:57 10° SSW 04:52:09 80° WNW 04:56:23 10° N
Meteor 1-31 Rocket 2.6 04:48:18 10° NNE 04:52:13 84° WNW 04:56:03 10° SSW
Cosmos 1328 Rocket 3.7 04:48:39 14° N 04:52:30 73° ENE 04:56:54 10° SSE
USA 307 2.9 04:52:13 54° SW 04:53:08 77° SSE 04:57:28 10° ENE
Cosmos 1461 3.2 04:57:23 49° W 04:58:14 57° SW 05:02:44 10° SSE
USA 308 2.9 04:58:07 48° WSW 04:59:15 80° SSE 05:03:35 10° ENE
Okean 3 Rocket 3.7 04:56:05 10° S 05:00:26 75° E 05:04:52 10° NNE
Cosmos 1503 Rocket 4.3 05:00:22 40° WNW 05:00:57 41° NW 05:05:56 10° NNE
BREEZE-M DEB (TANK) 4.4 04:59:14 28° W 05:03:15 48° SSW 05:06:52 10° SE
Cosmos 2082 4.0 05:01:58 35° W 05:03:50 47° NW 05:09:23 10° NNE
Timation 1 Rocket 4.3 04:59:26 17° SW 05:04:05 71° NW 05:10:08 10° NNE
Cosmos 1184 Rocket 3.7 05:02:07 10° S 05:05:18 50° E 05:08:31 10° NNE
Gbstr 26 Del rocket 2.8 05:05:52 49° WSW 05:06:34 61° SSW 05:10:25 10° ESE
Cosmos 2227 4.3 05:01:56 10° SSW 05:07:33 76° ESE 05:13:12 10° NE
CZ-4B R/B 3.2 05:03:50 10° NNE 05:08:24 83° ESE 05:12:53 10° SSW
Cosmos 1766 Rocket 3.6 05:04:31 10° S 05:09:00 84° E 05:13:31 10° NNE
Cosmos 2227 Rocket 3.0 05:08:42 30° NW 05:09:29 31° NW 05:14:30 10° NNE
Cosmos 923 Rocket 3.9 05:06:01 19° NNW 05:09:54 84° WSW 05:15:12 10° SSE
SJ 16-02 2.3 05:06:35 10° S 05:10:51 49° ESE 05:15:10 10° NNE
Cosmos 1441 Rocket 3.0 05:09:19 10° SSW 05:13:06 65° WNW 05:16:51 10° N
COSMO-SKYMED 1 2.8 05:09:08 10° S 05:13:18 45° W 05:14:58 30° NW
ADEOS 3.7 05:10:29 10° N 05:15:33 51° WNW 05:20:36 10° SW
Cosmos 2219 4.3 05:14:55 25° NW 05:15:48 26° NW 05:20:36 10° NNE
NOSS 2-2 (E) 4.2 05:15:51 31° NW 05:16:27 33° NNW 05:20:40 10° NE
Cosmos 1408 Rocket 4.1 05:15:30 10° S 05:19:55 64° E 05:24:21 10° NNE
Cosmos 1812 4.1 05:16:25 10° N 05:20:04 40° ENE 05:23:42 10° SE
CZ-2C R/B 3.9 05:18:04 10° N 05:19:45 17° NNW 05:19:45 17° NNW
PSLV R/B 4.3 05:20:49 10° S 05:24:48 43° W 05:27:03 22° NW
Meteor 1-26 Rocket 4.3 05:20:08 10° NNW 05:25:58 61° W 05:31:35 10° S
Meteor 1-4 Rocket 2.5 05:25:01 31° NW 05:26:19 51° W 05:29:40 10° S
ERBS 3.0 05:24:45 17° SW 05:27:03 52° SE 05:30:17 10° ENE
DMSP B5D1-3 4.4 05:22:54 10° SSE 05:28:03 80° WSW 05:33:15 10° NNW
CRYOSAT 2 4.5 05:23:52 10° SSW 05:28:35 50° W 05:33:20 10° NNW
USA 305 2.8 05:28:19 27° W 05:30:39 86° N 05:34:58 10° E
Lacrosse 5 3.8 05:29:47 10° SSW 05:34:09 30° SE 05:38:32 10° ENE
Cosmos 2228 Rocket 3.6 05:29:51 10° N 05:34:18 60° ENE 05:38:39 10° SSE
ATLAS 3B R/B 2.7 05:30:53 17° NW 05:36:22 80° SW 05:43:31 10° SE
ATLAS 5 CENTAUR R/B 2.1 05:33:25 18° WSW 05:36:59 46° NW 05:39:24 10° NE
SJ-12 4.2 05:33:36 10° N 05:37:28 43° WNW 05:41:18 10° SW
USA 306 2.9 05:36:07 23° W 05:38:46 83° N 05:43:06 10° E
ALOS 3.1 05:35:10 10° N 05:39:08 28° WNW 05:43:04 10° WSW
Cosmos 1680 Rocket 3.5 05:34:49 12° NNW 05:39:46 65° WSW 05:45:01 10° S
Cosmos 1777 Rocket 4.2 05:35:24 10° SW 05:40:26 48° WNW 05:45:30 10° NNE
NOSS 2-2 (D) 4.4 05:39:18 23° NW 05:40:43 29° NNW 05:44:45 10° NE
Cosmos 2297 Rocket 3.6 05:43:08 18° NW 05:45:02 21° NNW 05:49:13 10° NNE
Cosmos 1844 Rocket 4.3 05:40:03 10° S 05:45:12 38° ESE 05:50:25 10° NE
Meteor 1-10 Rocket 4.3 05:40:03 10° NNW 05:45:38 79° ENE 05:51:13 10° SSE
H-2A R/B 2.7 05:42:01 10° N 05:45:57 71° WNW 05:49:50 10° SSW
Cosmos 1689 Rocket 4.3 05:45:15 10° SW 05:45:43 12° SW 05:45:43 12° SW
Meteor 1-27 Rocket 4.5 05:42:30 10° N 05:48:08 56° ENE 05:53:49 10° SSE
deb Chang Zheng 4 4.3 05:46:02 10° N 05:49:49 30° WNW 05:53:36 10° WSW
Cosmos 1862 3.9 05:50:49 10° S 05:54:49 63° E 05:58:52 10° NNE
Cosmos 1633 3.2 05:52:21 10° SW 05:55:32 31° WNW 05:58:44 10° N
YAOGAN 6 2.4 05:52:05 10° NNE 05:55:38 87° WNW 05:59:08 10° SSW
NOSS 3-4 (A) 3.5 05:49:47 10° SW 05:55:45 83° SE 06:02:15 10° NE
NOSS 3-4 (C) 3.6 05:49:54 10° SW 05:55:52 82° SE 06:02:22 10° NE
SL-24 DEB 4.3 05:51:17 10° S 05:56:04 88° E 06:00:53 10° N
H-2A R/B 2.4 05:52:08 10° NNE 05:56:06 82° ESE 05:59:56 10° SSW
Meteor 2-3 Rocket 3.9 05:51:01 10° SSW 05:56:36 54° WNW 06:02:18 10° N
ATLAS CENTAUR R/B 1.1 05:54:33 16° NW 05:57:27 87° WSW 06:01:20 10° SE
Cosmos 2112 Rocket 4.2 05:52:37 10° NNW 05:57:51 55° WSW 06:03:04 10° S
Cosmos 1515 Rocket 4.0 05:56:47 10° NNW 06:01:01 43° W 06:05:13 10° SSW
USA 234 3.7 05:58:27 10° ENE 06:04:59 67° SSE 06:11:30 10° SW
CZ-4C R/B 3.1 06:01:48 10° SSW 06:06:42 51° SE 06:12:36 10° NE
MOS 1 Rocket 3.9 06:03:15 10° SSW 06:07:40 38° W 06:12:22 10° NNW
Nadezhda 3 Rocket 4.0 06:01:19 10° NNW 06:07:41 78° W 06:13:56 10° S
Okean O Rocket 2.2 06:03:24 10° NNE 06:07:50 65° ESE 06:12:15 10° S
Cosmos 2263 Rocket 2.4 06:02:52 10° SW 06:08:23 49° NW 06:13:56 10° NNE
DMSP B5D2-2 4.2 06:04:04 10° SSE 06:09:18 83° ENE 06:14:33 10° NNW
EO 1 Delta rocket 4.5 06:04:49 10° SSW 06:09:40 38° W 06:14:03 10° NNW
NOAA 12 4.5 06:04:58 10° NNE 06:10:17 70° ESE 06:15:32 10° S
CENTAUR R/B 4.2 06:04:52 12° WNW 06:10:35 26° WSW 06:17:25 10° SSW
PSLV R/B 4.0 06:07:11 10° N 06:11:03 50° WNW 06:14:48 10° SW
Geosat 4.1 06:06:33 10° SSE 06:11:30 59° WSW 06:16:29 10° NW
CZ-4B R/B 3.5 06:07:38 10° NNE 06:12:59 71° ESE 06:18:20 10° S
Cosmos 2082 Rocket 3.7 06:10:03 10° NNW 06:15:05 31° NE 06:20:07 10° ESE
ATLAS 2AS CENTAUR R/B 3.1 06:07:50 10° SW 06:15:50 88° SE 06:23:40 10° NE
Cosmos 1898 Rocket 3.6 06:11:23 10° SSW 06:16:43 86° ESE 06:22:06 10° NNE
Cosmos 1707 Rocket 4.0 06:13:01 10° N 06:17:22 63° ENE 06:21:40 10° SSE
RESURS DK-1 3.1 06:15:59 10° SSW 06:20:04 58° ESE 06:24:12 10° NE
COSMOS 2406 3.9 06:14:42 10° NNW 06:20:20 54° NE 06:25:58 10° SE
Cosmos 1782 4.1 06:18:53 10° NW 06:21:56 21° W 06:24:59 10° SW
Envisat 3.0 06:17:51 10° N 06:22:52 59° WNW 06:27:51 10° SSW
FALCON 9 DEB 3.1 06:20:14 10° W 06:23:44 90° NNW 06:27:13 10° E
SL-4 R/B 2.0 06:22:20 10° WSW 06:26:09 67° S 06:29:44 10° E
Lacrosse 4 Rocket 3.2 06:25:05 10° WNW 06:27:53 17° WSW 06:30:43 10° SSW
Cosmos 1500 Rocket 3.6 06:25:25 10° SSW 06:29:38 53° WNW 06:33:54 10° N
CZ-2C R/B 2.8 06:24:33 10° S 06:30:00 59° W 06:35:22 10° NNW
CORIOLIS 4.3 06:27:26 10° NNE 06:32:57 88° ESE 06:38:24 10° SSW
Cosmos 2154 Rocket 4.0 06:27:03 10° SSW 06:33:15 71° WNW 06:39:32 10° N
USA 307 3.0 06:28:56 10° W 06:33:16 78° N 06:37:36 10° E
SMAP 3.0 06:30:12 10° N 06:34:51 68° WNW 06:39:28 10° SSW
Cosmos 1833 Rocket 3.3 06:31:08 10° NNW 06:36:43 56° NE 06:42:14 10° SE
USA 308 3.0 06:35:04 10° W 06:39:24 79° N 06:43:43 10° E
CZ-2C R/B 4.3 06:36:44 10° SSE 06:41:27 65° ENE 06:46:12 10° N
Cosmos 2341 Rocket 4.2 06:35:25 10° S 06:41:36 80° E 06:47:51 10° NNE
Cosmos 1937 Rocket 3.5 06:36:32 10° SSW 06:41:42 83° WNW 06:46:56 10° NNE
